• In Belarus
  • List of Countries
  • For 7 days
  • Water Temperature
  • Satellite Maps
  • Weather Map
  • Weather Widgets
  • user-avatar
    Login

    Hourly Weather Chengam

    Today, 20 April, Saturday

    Time Temperature Precipitation Wind Pressure Humidity
    00:00 +31°C° 2.7 mm 2 mps 733 mmHg 70%
    01:00 +30°C° 2.7 mm 2 mps 733 mmHg 72%
    02:00 +30°C° 2.7 mm 2 mps 732 mmHg 73%
    03:00 +29°C° 0.1 mm 2 mps 732 mmHg 74%
    04:00 +29°C° 0.1 mm 2 mps 732 mmHg 76%
    05:00 +29°C° 0 mm 1 mps 732 mmHg 76%
    06:00 +30°C° 0 mm 1 mps 733 mmHg 71%
    07:00 +31°C° 0 mm 1 mps 733 mmHg 66%
    08:00 +32°C° 0 mm 1 mps 733 mmHg 61%
    09:00 +34°C° 0 mm 1 mps 733 mmHg 54%
    10:00 +36°C° 0 mm 1 mps 733 mmHg 47%
    11:00 +39°C° 0 mm 1 mps 733 mmHg 39%
    12:00 +39°C° 0 mm 1 mps 732 mmHg 37%
    13:00 +40°C° 0 mm 1 mps 732 mmHg 35%
    14:00 +40°C° 0 mm 1 mps 731 mmHg 34%
    15:00 +39°C° 0 mm 2 mps 731 mmHg 35%
    16:00 +39°C° 0 mm 2 mps 731 mmHg 36%
    17:00 +38°C° 0 mm 2 mps 730 mmHg 37%
    18:00 +37°C° 0.7 mm 3 mps 730 mmHg 46%
    19:00 +35°C° 0.7 mm 4 mps 731 mmHg 55%
    20:00 +33°C° 0.7 mm 5 mps 731 mmHg 64%
    21:00 +32°C° 3.9 mm 4 mps 732 mmHg 67%
    22:00 +31°C° 3.9 mm 3 mps 732 mmHg 70%
    23:00 +30°C° 3.9 mm 2 mps 733 mmHg 73%

    Tomorrow, 21 April, Sunday

    Time Temperature Precipitation Wind Pressure Humidity
    00:00 +30°C° 0 mm 2 mps 732 mmHg 73%
    01:00 +30°C° 0 mm 2 mps 732 mmHg 74%
    02:00 +30°C° 0 mm 2 mps 732 mmHg 74%
    03:00 +30°C° 0 mm 2 mps 732 mmHg 75%
    04:00 +29°C° 0 mm 2 mps 732 mmHg 75%
    05:00 +29°C° 0 mm 1 mps 732 mmHg 76%
    06:00 +30°C° 0 mm 2 mps 732 mmHg 70%
    07:00 +31°C° 0 mm 2 mps 733 mmHg 64%
    08:00 +32°C° 0 mm 2 mps 733 mmHg 58%
    09:00 +34°C° 0 mm 2 mps 733 mmHg 51%
    10:00 +36°C° 0 mm 2 mps 733 mmHg 44%
    11:00 +38°C° 0 mm 2 mps 733 mmHg 37%
    12:00 +39°C° 0 mm 2 mps 732 mmHg 34%
    13:00 +40°C° 0 mm 2 mps 731 mmHg 30%
    14:00 +41°C° 0 mm 1 mps 731 mmHg 27%
    15:00 +40°C° 0 mm 1 mps 730 mmHg 27%
    16:00 +40°C° 0 mm 2 mps 730 mmHg 27%
    17:00 +40°C° 0 mm 2 mps 730 mmHg 27%
    18:00 +38°C° 0 mm 2 mps 730 mmHg 35%
    19:00 +37°C° 0 mm 3 mps 731 mmHg 42%
    20:00 +35°C° 0 mm 4 mps 731 mmHg 49%
    21:00 +35°C° 0.4 mm 3 mps 731 mmHg 52%
    22:00 +34°C° 0.4 mm 3 mps 732 mmHg 55%
    23:00 +32°C° 0.4 mm 2 mps 732 mmHg 58%

    Day after tomorrow, 22 April, Monday

    Time Temperature Precipitation Wind Pressure Humidity
    00:00 +32°C° 0.1 mm 2 mps 732 mmHg 59%
    01:00 +31°C° 0.1 mm 1 mps 731 mmHg 59%
    02:00 +31°C° 0.1 mm 1 mps 731 mmHg 60%
    03:00 +31°C° 0 mm 1 mps 731 mmHg 61%
    04:00 +30°C° 0 mm 1 mps 731 mmHg 61%
    05:00 +30°C° 0 mm 1 mps 731 mmHg 61%
    06:00 +31°C° 0 mm 1 mps 731 mmHg 57%
    07:00 +32°C° 0 mm 1 mps 732 mmHg 53%
    08:00 +33°C° 0 mm 1 mps 733 mmHg 48%
    09:00 +35°C° 0 mm 1 mps 733 mmHg 43%
    10:00 +37°C° 0 mm 1 mps 733 mmHg 38%
    11:00 +40°C° 0 mm 1 mps 733 mmHg 33%
    12:00 +40°C° 0 mm 1 mps 732 mmHg 32%
    13:00 +40°C° 0 mm 2 mps 731 mmHg 31%
    14:00 +40°C° 0 mm 2 mps 731 mmHg 30%
    15:00 +40°C° 0 mm 2 mps 731 mmHg 30%
    16:00 +39°C° 0 mm 2 mps 730 mmHg 31%
    17:00 +39°C° 0 mm 2 mps 730 mmHg 32%
    18:00 +37°C° 0.4 mm 3 mps 731 mmHg 42%
    19:00 +36°C° 0.4 mm 3 mps 731 mmHg 52%
    20:00 +34°C° 0.4 mm 3 mps 732 mmHg 62%
    21:00 +33°C° 0 mm 3 mps 732 mmHg 65%
    22:00 +33°C° 0 mm 3 mps 733 mmHg 68%
    23:00 +31°C° 0 mm 3 mps 733 mmHg 72%

    23 April, Tuesday

    Time Temperature Precipitation Wind Pressure Humidity
    00:00 +30°C° 0 mm 3 mps 732 mmHg 74%
    01:00 +30°C° 0 mm 2 mps 732 mmHg 76%
    02:00 +29°C° 0 mm 2 mps 732 mmHg 78%
    03:00 +29°C° 0 mm 2 mps 732 mmHg 79%
    04:00 +29°C° 0 mm 1 mps 732 mmHg 80%
    05:00 +29°C° 0 mm 1 mps 732 mmHg 81%
    06:00 +30°C° 0.7 mm 1 mps 733 mmHg 75%
    07:00 +29°C° 0.7 mm 0 mps 734 mmHg 68%
    08:00 +30°C° 0.7 mm 0 mps 734 mmHg 62%
    09:00 +32°C° 0 mm 0 mps 734 mmHg 54%
    10:00 +36°C° 0 mm 1 mps 734 mmHg 45%
    11:00 +39°C° 0 mm 1 mps 734 mmHg 37%
    12:00 +39°C° 0 mm 2 mps 733 mmHg 33%
    13:00 +40°C° 0 mm 3 mps 732 mmHg 29%
    14:00 +42°C° 0 mm 4 mps 731 mmHg 25%
    15:00 +41°C° 0 mm 4 mps 731 mmHg 26%
    16:00 +41°C° 0 mm 4 mps 731 mmHg 28%
    17:00 +40°C° 0 mm 4 mps 731 mmHg 29%
    18:00 +37°C° 0.3 mm 4 mps 732 mmHg 39%
    19:00 +35°C° 0.3 mm 4 mps 733 mmHg 50%
    20:00 +33°C° 0.3 mm 4 mps 734 mmHg 61%
    21:00 +33°C° 0.1 mm 3 mps 734 mmHg 62%
    22:00 +31°C° 0.1 mm 2 mps 734 mmHg 63%
    23:00 +31°C° 0.1 mm 2 mps 734 mmHg 64%

    24 April, Wednesday

    Time Temperature Precipitation Wind Pressure Humidity
    00:00 +31°C° 0 mm 2 mps 734 mmHg 65%
    01:00 +30°C° 0 mm 2 mps 733 mmHg 65%
    02:00 +30°C° 0 mm 1 mps 733 mmHg 66%
    03:00 +30°C° 0 mm 1 mps 733 mmHg 67%
    04:00 +30°C° 0 mm 1 mps 733 mmHg 67%
    05:00 +29°C° 0 mm 1 mps 733 mmHg 68%
    06:00 +30°C° 0 mm 1 mps 734 mmHg 65%
    07:00 +31°C° 0 mm 1 mps 735 mmHg 61%
    08:00 +32°C° 0 mm 2 mps 735 mmHg 58%
    09:00 +34°C° 0 mm 2 mps 735 mmHg 50%
    10:00 +36°C° 0 mm 2 mps 735 mmHg 42%
    11:00 +38°C° 0 mm 2 mps 735 mmHg 34%
    12:00 +39°C° 0 mm 3 mps 734 mmHg 30%
    13:00 +40°C° 0 mm 3 mps 733 mmHg 26%
    14:00 +42°C° 0 mm 3 mps 732 mmHg 22%
    15:00 +41°C° 0 mm 4 mps 732 mmHg 23%
    16:00 +41°C° 0 mm 4 mps 732 mmHg 24%
    17:00 +41°C° 0 mm 5 mps 732 mmHg 25%
    18:00 +37°C° 0 mm 4 mps 732 mmHg 33%
    19:00 +35°C° 0 mm 3 mps 733 mmHg 42%
    20:00 +33°C° 0 mm 3 mps 734 mmHg 51%
    21:00 +31°C° 0 mm 2 mps 734 mmHg 54%
    22:00 +31°C° 0 mm 2 mps 734 mmHg 58%
    23:00 +30°C° 0 mm 2 mps 734 mmHg 61%

    25 April, Thursday

    Time Temperature Precipitation Wind Pressure Humidity
    00:00 +30°C° 0 mm 1 mps 733 mmHg 64%
    01:00 +29°C° 0 mm 1 mps 733 mmHg 67%
    02:00 +28°C° 0 mm 1 mps 732 mmHg 70%
    03:00 +28°C° 0 mm 1 mps 732 mmHg 72%
    04:00 +26°C° 0 mm 0 mps 733 mmHg 74%
    05:00 +25°C° 0 mm 0 mps 733 mmHg 77%
    06:00 +29°C° 0 mm 1 mps 734 mmHg 70%
    07:00 +30°C° 0 mm 1 mps 734 mmHg 63%
    08:00 +31°C° 0 mm 1 mps 735 mmHg 57%
    09:00 +34°C° 0 mm 2 mps 735 mmHg 48%
    10:00 +36°C° 0 mm 2 mps 734 mmHg 40%
    11:00 +38°C° 0 mm 3 mps 734 mmHg 31%
    12:00 +39°C° 0 mm 3 mps 733 mmHg 28%
    13:00 +40°C° 0 mm 3 mps 732 mmHg 25%
    14:00 +42°C° 0 mm 3 mps 731 mmHg 22%
    15:00 +42°C° 0 mm 3 mps 731 mmHg 22%
    16:00 +40°C° 0 mm 3 mps 731 mmHg 23%
    17:00 +40°C° 0 mm 3 mps 731 mmHg 23%
    18:00 +38°C° 0 mm 3 mps 732 mmHg 32%
    19:00 +36°C° 0 mm 3 mps 732 mmHg 42%
    20:00 +34°C° 0 mm 3 mps 733 mmHg 51%
    21:00 +33°C° 0 mm 3 mps 733 mmHg 55%
    22:00 +31°C° 0 mm 2 mps 733 mmHg 59%
    23:00 +31°C° 0 mm 2 mps 733 mmHg 64%
    Show more